Terminal Aerodrome Forecast
Issued by NWS

Home | Current Version | Previous Version | Text Only | Print | Product List | Glossary On
Versions: 1 2 3 4 5 6 7 8 9 10 11 12 13 14 15 16 17 18 19 20 21 22 23 24 25 26 27 28 29 30 31 32 33 34 35 36 37 38 39 40 41 42 43 44 45 46 47 48 49 50
000
FTUS43 KMKX 230901 AAB
TAFENW
TAF AMD
KENW 230901Z 2309/2406 09003KT 1/4SM FG VV002
     FM231400 08004KT 1 1/2SM BR BKN008
     FM231600 08006KT 5SM BR SCT015 BKN035
     FM232100 09008KT P6SM SCT150
     FM240300 07003KT 4SM BR BKN250=

USA.gov is the U.S. government's official web portal to all federal, state and local government web resources and services.